Wind_Speed
8 8 9 9 9 9 9 9 9 9 9 9 9 9 9 10 10 10 10 10 10 11 11 12 12 13 13 11 9 8 9 10 10 7 7 9 10 9 9 6 4 7 8 6 6 7 5 3 4 3 3 2 2 1 0 1 2 2 3 2 3 3 4 6 7 6 3 4 5 6 1 5 5 5 1 2 2 4 3 4 5 5 4 3 4 4 4 19
8 9 9 9 10 10 10 10 10 10 9 10 10 9 9 9 10 10 10 11 11 11 11 12 13 14 14 12 10 9 11 11 9 8 7 6 6 8 10 8 7 8 9 8 9 10 6 3 5 5 4 1 1 1 0 1 2 2 3 2 4 6 5 6 7 5 4 4 6 7 3 5 6 4 1 3 7 4 5 6 4 7 9 4 1 4 13 23
9 9 10 10 10 10 10 10 10 10 10 10 10 10 10 10 10 10 10 10 11 11 11 12 13 14 14 12 10 11 11 8 5 5 2 3 5 3 7 10 8 9 10 7 8 9 6 6 10 7 4 0 2 1 1 0 2 2 3 2 6 7 6 6 7 7 7 4 6 8 2 3 6 4 1 4 9 7 7 7 4 7 12 10 3 8 16 21
10 10 10 11 11 11 11 10 10 10 10 10 10 10 9 10 10 10 10 10 10 10 10 11 12 13 12 11 10 10 10 5 2 4 4 3 7 4 5 10 10 9 10 8 5 7 5 8 9 5 4 1 3 1 1 3 3 2 4 5 7 5 4 8 9 9 8 4 4 5 3 4 7 3 3 4 7 10 9 8 10 12 14 11 6 9 15 18
10 10 11 11 11 11 12 11 12 11 11 11 11 11 10 10 10 10 10 10 10 10 10 10 11 12 11 10 8 8 7 5 2 5 3 6 7 4 3 8 11 10 10 9 5 7 6 6 6 4 3 2 2 2 3 5 4 2 5 8 7 5 4 8 7 7 6 3 3 4 5 6 4 2 6 6 8 12 7 8 13 14 14 11 9 11 13 13
10 10 11 11 11 11 12 12 12 12 13 13 12 12 12 12 11 11 10 10 10 10 10 9 10 11 10 8 5 5 3 1 4 3 6 8 6 3 3 7 11 11 11 10 7 7 5 4 4 2 2 1 3 4 5 4 4 3 5 6 7 7 7 7 4 5 4 2 5 5 5 3 4 7 6 8 14 16 7 7 11 12 13 9 9 11 12 13
9 10 10 10 10 10 11 12 12 13 13 13 13 14 14 14 14 13 12 11 10 10 10 9 10 10 8 6 4 3 3 5 11 9 9 9 5 4 5 8 11 12 13 12 9 7 5 5 4 4 3 1 4 6 5 1 3 4 5 5 6 7 9 9 6 5 3 6 8 3 5 5 9 9 1 6 19 17 9 8 9 10 8 6 9 12 15 16
9 9 9 9 9 10 11 11 12 12 13 13 14 14 14 14 15 15 15 14 13 12 11 9 9 9 8 4 1 3 0 8 14 10 8 7 5 5 6 9 12 14 15 15 13 9 6 6 6 4 2 4 4 4 4 1 1 5 8 6 4 4 8 10 8 7 7 7 6 3 8 12 13 6 4 15 23 15 9 10 11 8 5 7 10 13 14 14
8 9 9 9 10 10 11 12 12 13 14 14 14 14 14 14 14 15 15 15 15 14 12 11 10 9 8 2 3 3 5 7 7 7 7 6 6 6 8 10 13 16 15 15 15 11 7 6 7 6 4 4 5 4 3 2 4 7 8 5 4 6 8 8 8 8 7 5 4 3 12 16 9 2 8 21 21 12 8 10 9 7 7 8 10 11 13 13
9 9 9 10 10 11 12 12 13 14 15 15 15 15 15 15 14 15 15 15 15 15 14 12 10 8 6 1 2 4 7 5 6 8 8 8 8 9 11 11 13 17 14 10 12 12 8 8 7 5 4 2 4 4 3 5 5 5 5 6 6 8 8 6 7 7 4 5 7 8 15 16 5 2 10 18 9 1 3 6 6 6 9 10 9 10 11 13
9 10 10 10 11 12 12 13 15 16 17 17 17 17 16 16 15 15 15 15 15 15 14 13 10 8 6 3 3 7 7 7 9 10 10 10 12 12 13 13 14 17 15 8 12 16 11 9 7 5 2 2 2 2 3 5 2 2 2 7 9 7 9 9 8 7 3 5 9 11 12 13 4 3 13 20 7 2 5 8 6 6 9 10 10 10 9 11
9 10 10 11 11 12 14 15 16 17 18 19 19 18 18 17 16 16 16 16 16 14 13 12 10 8 4 2 7 14 15 14 13 13 14 14 13 13 12 14 14 15 15 9 9 14 12 8 7 4 4 2 0 1 4 3 0 3 2 6 12 7 10 14 9 6 6 5 6 9 5 8 6 10 17 21 11 2 7 11 10 9 9 9 9 9 8 11
8 10 11 12 12 13 15 16 17 19 20 21 20 20 19 18 17 17 17 16 16 15 13 11 9 7 3 2 8 16 20 21 19 18 18 17 14 13 13 14 14 13 14 10 6 6 9 9 8 5 3 2 2 2 1 2 3 5 2 1 9 8 9 11 1 1 5 5 6 7 4 7 10 17 18 16 10 4 7 12 13 9 8 8 8 8 9 11
9 10 11 13 14 15 16 18 20 21 22 23 21 20 20 19 18 17 17 17 16 14 11 7 5 5 4 6 9 9 15 19 20 21 21 19 16 13 12 13 12 12 11 8 4 2 3 7 7 3 1 3 3 4 3 5 3 4 3 1 3 3 8 8 3 3 3 4 7 6 6 9 12 19 17 11 6 5 8 13 13 10 8 8 8 8 10 12
10 11 12 14 15 16 18 19 21 22 24 24 22 21 22 20 18 17 18 17 15 10 7 3 7 7 2 7 10 8 12 15 18 24 23 20 17 11 10 12 11 9 8 6 4 3 4 6 5 2 2 1 1 3 4 4 3 2 3 4 2 3 7 12 5 5 8 5 4 7 6 8 11 18 17 8 3 6 9 12 12 11 10 9 8 8 10 11
11 12 13 14 15 17 18 20 22 24 26 25 22 23 23 20 17 16 16 14 11 7 3 4 10 7 1 5 6 7 10 12 15 20 19 20 19 12 7 10 8 6 5 4 4 5 5 5 2 2 1 2 1 1 3 4 5 2 2 5 5 5 4 8 10 7 11 6 2 7 7 6 8 12 14 6 3 7 8 12 12 12 12 10 9 7 9 10
11 12 13 15 16 17 19 21 23 25 27 24 24 24 20 15 12 10 9 5 2 6 5 3 7 4 2 5 5 7 9 12 14 13 14 18 18 13 8 6 5 6 6 4 5 5 2 2 1 0 1 1 2 4 3 3 6 3 2 4 5 7 5 4 9 7 4 5 6 8 9 11 12 10 12 10 5 6 8 12 13 11 10 9 8 8 9 9
11 13 13 15 16 18 19 21 24 26 26 25 25 22 13 7 6 3 4 8 10 8 4 1 4 2 5 6 6 6 4 7 9 8 11 13 14 13 8 5 6 8 7 4 2 3 1 2 2 1 1 3 3 5 3 7 8 7 5 5 3 5 7 6 8 6 2 4 7 5 9 15 16 13 13 14 12 10 10 13 13 12 11 10 9 10 12 11
11 12 13 15 16 18 20 21 24 25 25 26 25 15 5 5 5 6 8 9 8 5 1 2 4 2 4 7 8 6 4 3 4 5 8 9 11 10 6 5 6 8 5 1 1 3 2 3 3 3 3 8 8 8 11 14 14 10 6 5 6 6 7 8 11 9 5 8 7 7 14 17 16 15 15 15 15 15 15 14 14 13 12 12 11 12 14 15
11 13 14 15 16 18 19 21 23 23 24 27 23 10 2 4 4 2 3 1 3 4 3 5 6 4 5 5 3 4 4 4 4 4 8 10 12 10 4 4 6 4 3 5 4 2 3 4 4 6 11 15 13 12 16 17 11 5 3 6 7 7 10 10 12 11 3 5 8 9 17 19 15 16 16 15 14 15 18 17 16 14 13 13 13 16 17 17
12 13 14 15 16 18 18 20 22 21 21 21 18 8 2 1 2 3 5 5 10 10 8 10 10 10 12 9 4 1 1 2 4 3 9 11 12 10 2 2 5 2 3 4 2 1 2 6 8 12 18 15 10 10 13 11 7 6 6 8 7 7 13 13 13 14 3 2 8 8 16 21 16 16 15 14 13 15 19 20 19 17 15 13 14 18 19 16
13 14 15 15 15 17 18 19 20 18 18 16 14 8 3 1 2 3 2 4 10 9 10 12 10 11 17 21 16 4 2 4 6 3 11 10 7 6 3 4 6 4 3 4 1 1 3 6 12 17 15 7 3 4 5 6 7 7 5 6 7 7 11 12 11 12 3 2 7 8 14 18 15 15 15 15 17 15 17 20 20 18 15 14 16 18 19 17
13 13 14 14 15 17 17 19 17 15 16 13 10 6 1 3 3 3 1 2 8 6 7 9 7 7 12 19 17 8 5 8 7 5 12 11 4 4 4 5 5 3 5 6 7 6 5 7 13 16 8 4 7 3 4 3 5 6 6 6 8 7 7 9 6 6 3 3 7 9 14 15 13 14 13 17 20 16 16 20 19 17 16 17 19 19 17 18
12 13 12 12 13 14 16 18 13 13 16 9 6 6 4 4 1 2 0 2 5 6 7 7 5 5 9 9 7 10 7 6 4 5 12 14 4 2 4 5 5 3 6 12 13 12 10 8 8 9 8 8 10 7 4 5 6 7 9 8 10 12 12 11 5 6 6 5 6 8 14 13 9 12 12 13 16 14 13 16 17 17 17 17 19 20 18 19
12 13 11 11 12 12 16 15 8 12 16 6 4 9 6 3 1 2 0 2 3 6 6 4 3 4 8 2 4 8 3 3 5 4 12 15 8 3 3 3 4 6 10 11 11 11 11 6 4 6 7 9 9 8 7 7 9 9 8 12 18 17 13 12 8 7 6 5 4 4 9 11 5 10 10 8 8 11 9 11 15 18 18 15 16 19 17 16
12 13 12 11 12 12 13 8 6 13 13 4 4 9 6 4 3 2 1 3 4 5 2 2 2 2 3 2 4 5 3 3 5 2 9 12 9 5 2 2 1 5 8 6 4 5 6 5 6 8 8 8 7 7 8 10 9 9 6 12 16 13 9 11 9 4 2 4 3 3 1 10 6 6 10 8 8 11 9 9 15 17 15 13 14 16 14 13
13 13 12 11 12 12 8 4 8 12 6 2 6 9 8 6 3 2 1 4 5 2 2 2 0 2 1 2 2 5 3 5 3 3 2 2 3 2 2 4 2 2 3 2 2 4 4 3 5 8 7 6 6 8 9 11 8 8 4 8 9 8 9 8 6 5 4 3 3 1 4 7 14 7 8 11 10 9 11 13 16 16 14 14 13 13 14 14
15 13 11 10 11 11 8 7 9 7 2 3 7 8 7 5 2 1 3 3 5 1 2 2 0 1 1 0 2 4 2 3 3 2 3 3 0 1 1 5 4 3 2 4 5 4 4 5 7 8 6 5 8 9 6 11 8 7 2 4 6 6 6 5 5 5 1 3 3 3 5 2 15 7 4 5 7 8 12 15 17 16 14 14 12 12 15 15
16 14 12 10 9 11 10 9 8 5 4 4 6 8 6 4 2 4 3 3 3 1 1 1 1 1 3 1 0 2 2 3 2 3 4 3 1 3 2 5 4 4 4 5 8 6 1 5 7 8 6 7 8 5 6 12 8 4 6 5 4 4 2 4 3 3 2 4 4 6 6 3 13 8 5 4 3 7 12 13 13 13 12 13 11 13 15 12
12 12 12 9 8 10 8 9 11 8 7 5 6 6 4 2 2 2 3 4 1 1 1 1 0 1 3 3 2 4 1 2 0 2 3 1 2 4 1 2 3 2 5 3 8 8 3 1 3 5 5 6 4 2 3 7 5 3 5 5 6 5 4 4 1 3 1 7 6 11 13 8 8 6 4 4 4 6 8 7 8 10 12 13 11 12 13 11
8 9 9 10 11 10 6 6 9 7 8 6 4 3 2 2 3 2 7 2 1 3 0 1 2 2 3 3 2 3 0 3 1 2 0 1 2 4 1 1 2 2 3 4 6 7 3 1 2 3 2 4 5 3 1 1 3 4 3 3 3 4 4 4 4 4 1 8 5 11 13 11 10 6 1 4 6 4 6 7 8 11 12 12 10 11 11 11
8 8 8 10 13 14 10 6 3 2 4 4 1 1 1 2 1 6 5 3 2 2 1 0 2 2 3 2 1 2 1 2 1 4 3 3 2 2 3 5 4 0 4 4 4 5 4 6 5 2 2 5 6 2 3 4 3 4 3 3 1 4 3 3 3 1 4 8 5 6 7 7 13 9 4 10 11 9 9 8 9 10 11 11 11 11 10 8
9 9 8 9 13 17 16 12 8 5 3 4 1 3 5 2 6 4 2 2 2 1 2 1 1 1 3 1 3 3 1 3 3 3 2 3 2 4 5 5 6 3 5 3 1 4 4 5 3 3 3 5 8 6 3 2 4 6 5 6 4 2 2 4 3 2 5 7 3 2 4 5 9 7 8 14 15 12 9 8 11 11 11 11 10 10 10 10
11 11 11 10 12 16 16 16 15 13 7 6 2 3 3 8 7 2 3 5 3 3 1 2 3 2 2 2 4 3 1 4 4 4 2 2 1 3 4 5 5 3 2 2 2 2 4 8 5 8 4 6 12 12 10 5 4 7 6 6 5 6 4 4 4 5 8 6 3 1 4 4 4 3 7 11 9 8 6 7 8 8 9 9 9 10 12 12
14 13 13 13 14 15 16 18 19 16 11 6 3 2 6 9 6 2 5 5 2 4 4 2 2 2 2 3 4 3 4 5 1 4 2 3 3 4 3 4 7 5 2 3 3 3 4 9 6 4 1 8 10 9 7 6 1 4 4 4 5 6 5 4 7 7 5 4 4 2 4 5 4 5 7 8 9 9 8 6 6 8 9 8 8 11 12 12
14 14 14 14 16 17 17 19 21 19 13 6 2 6 9 9 4 3 4 2 2 2 2 4 1 2 5 3 3 3 3 3 1 1 2 3 3 5 5 4 7 10 8 5 3 2 4 7 4 1 2 4 3 3 1 3 2 2 3 4 4 3 6 5 7 4 0 4 6 4 7 7 5 9 7 2 5 8 8 8 8 9 9 8 9 10 10 11
12 12 11 14 18 18 17 20 23 20 11 5 5 8 7 6 5 5 3 2 2 3 2 3 3 3 4 2 3 3 1 2 2 2 2 2 3 4 5 5 6 13 14 9 4 3 4 7 4 2 2 2 1 1 2 2 2 5 3 5 1 3 2 3 2 1 1 8 7 5 13 11 5 8 6 7 8 8 7 8 7 8 8 7 9 9 9 10
12 9 10 16 22 21 18 21 24 17 6 3 9 11 6 4 5 6 4 2 2 1 2 5 5 4 4 5 4 3 3 3 2 3 3 3 4 4 5 4 4 10 13 9 3 2 1 5 5 1 2 4 3 0 2 3 2 5 3 2 2 1 3 2 3 3 6 10 6 7 15 13 7 8 7 7 9 9 9 6 5 8 8 7 7 8 9 10
9 5 6 10 14 20 23 24 21 11 3 4 10 10 6 5 5 5 6 5 4 3 5 6 5 4 5 6 6 3 4 5 3 3 4 4 5 4 4 3 2 4 8 7 5 2 1 3 5 1 1 2 4 1 3 3 2 1 1 3 1 2 3 3 3 2 5 9 8 8 11 9 7 7 5 8 9 7 8 7 4 6 8 7 7 7 8 8
4 2 5 5 5 16 26 23 14 5 4 7 9 8 4 4 4 3 6 7 4 3 5 5 5 5 7 8 8 5 4 5 5 4 4 4 5 4 3 2 2 1 2 3 3 2 1 3 5 1 1 2 1 3 5 4 2 1 2 3 3 2 1 1 2 1 3 7 8 8 9 8 6 4 5 7 7 6 5 5 5 6 7 7 7 7 7 8
2 2 5 7 4 17 24 14 5 4 5 6 9 9 6 5 5 4 4 5 5 3 3 4 5 6 7 8 8 6 3 4 5 5 5 5 6 6 3 4 6 3 2 3 1 2 1 2 2 1 4 6 6 5 6 6 4 4 4 4 5 5 3 5 6 4 4 5 7 9 10 7 4 5 5 5 5 7 7 5 7 7 8 8 7 6 6 7
3 4 2 8 5 23 18 5 4 4 4 5 5 6 5 4 5 6 4 3 4 3 2 3 6 7 7 8 8 7 5 4 5 6 5 6 9 8 5 4 7 4 3 1 4 4 2 2 3 4 6 9 10 6 7 7 6 5 5 5 6 5 4 6 8 6 5 7 6 8 11 5 3 10 11 6 5 6 6 6 6 6 7 8 9 10 9 8
2 4 6 9 12 24 10 3 7 4 4 4 2 3 3 2 4 5 4 3 4 3 3 4 6 7 8 8 8 7 5 4 6 7 6 6 7 8 6 5 4 4 3 2 4 2 2 2 3 5 4 5 10 11 7 6 5 6 5 7 8 8 9 10 9 6 7 9 7 9 11 5 3 9 14 14 12 9 6 6 4 5 6 7 9 11 11 11
2 3 6 9 11 13 5 5 8 7 7 5 5 7 5 2 5 7 6 5 3 4 4 4 5 6 7 6 6 5 4 5 6 7 7 6 5 6 5 5 5 2 1 4 3 3 3 3 3 3 4 4 6 7 6 2 4 4 5 8 11 13 14 13 7 4 7 10 11 11 11 6 4 8 12 16 19 17 14 9 4 4 7 7 8 8 8 10
3 2 3 8 11 7 3 4 4 5 7 8 10 10 8 5 5 8 9 6 4 4 4 4 3 2 2 3 5 5 6 6 6 5 5 4 4 4 4 8 9 6 6 7 4 2 4 4 4 4 7 8 8 7 7 4 2 2 4 8 12 15 16 12 7 6 9 11 13 13 12 9 8 9 12 18 21 23 22 14 5 4 6 7 7 7 7 8
2 3 1 3 4 4 3 3 2 2 3 6 8 8 11 12 6 4 6 6 7 7 4 4 3 2 2 3 4 7 7 8 7 5 5 4 3 2 5 9 7 5 8 8 4 1 2 3 7 10 11 11 12 12 10 8 5 5 7 8 9 10 12 11 9 10 11 11 13 14 14 14 13 12 15 18 19 20 22 19 11 6 7 8 6 5 7 8
2 3 1 1 2 3 4 4 3 3 2 3 4 3 7 11 7 3 5 4 5 4 3 5 5 5 5 4 5 6 6 8 9 8 7 4 3 5 7 7 5 8 10 8 6 2 2 4 9 15 16 15 17 18 16 14 12 13 13 13 12 11 11 11 12 13 11 12 13 12 13 16 14 11 14 17 17 17 19 20 18 13 10 8 8 10 11 11
2 1 1 2 2 2 3 3 3 3 3 2 2 3 5 8 7 5 3 1 1 0 2 3 2 1 2 2 3 2 2 4 5 3 2 3 4 6 7 4 2 7 10 7 6 3 2 5 7 13 16 16 17 19 18 17 16 15 16 18 19 18 17 16 18 17 14 14 16 14 15 18 15 12 15 15 14 15 15 17 18 16 14 12 12 12 11 11
1 1 3 2 1 2 3 3 3 3 3 3 2 3 8 12 12 6 1 2 3 2 3 2 3 5 4 3 1 1 3 4 3 1 3 4 4 3 4 4 2 5 8 6 6 2 3 4 5 10 14 14 15 18 19 19 19 18 18 18 19 20 22 22 23 22 19 20 20 19 22 23 17 13 12 9 9 10 11 13 14 15 13 11 12 12 11 11
0 1 2 3 2 2 2 3 3 2 3 4 4 5 6 9 10 4 1 3 4 2 1 1 3 3 1 0 1 2 3 2 3 2 1 3 4 1 1 3 3 4 6 5 3 3 3 3 6 8 10 11 13 15 16 18 18 18 17 17 18 20 23 24 21 19 19 21 22 23 24 20 10 8 9 9 10 11 12 13 12 12 11 11 12 12 11 11
3 2 1 2 3 3 1 2 2 2 4 3 4 4 3 4 4 2 2 4 4 1 2 4 2 3 1 1 3 4 3 2 2 4 2 2 3 3 2 2 3 6 7 4 2 2 3 3 6 8 7 9 10 10 12 14 15 17 17 18 20 21 19 18 17 17 18 20 22 21 16 9 7 10 9 10 12 13 12 11 9 9 9 9 10 11 11 12
3 3 1 1 3 4 2 1 1 3 4 2 2 3 2 0 3 4 3 2 2 3 6 6 3 4 2 5 5 2 4 3 5 7 5 6 8 8 7 8 8 7 6 5 4 3 4 4 5 6 7 9 11 12 11 12 13 14 12 13 17 19 17 16 16 15 12 10 10 8 4 3 6 9 11 12 13 13 12 9 6 7 8 7 8 9 9 10
Wind_Direction
355 356 355 358 358 357 359 359 1 1 3 2 2 2 359 358 355 353 350 349 351 351 351 348 348 347 344 341 336 324 315 307 299 283 257 275 282 258 248 248 224 210 206 198 183 164 146 151 169 147 112 86 13 10 77 39 101 74 95 147 237 205 202 195 194 203 200 265 277 308 299 184 270 294 296 343 278 257 264 271 274 283 265 225 282 313 156 163
351 352 353 356 354 355 355 354 355 355 357 355 356 354 352 353 349 348 345 343 344 344 346 344 344 345 345 345 338 333 323 311 299 276 266 295 302 260 237 226 215 207 202 199 198 178 151 184 178 115 73 65 324 1 2 275 140 131 129 182 231 205 215 202 193 211 210 252 279 293 281 189 233 265 35 271 264 267 261 270 295 284 268 261 288 146 158 162
349 350 352 353 352 352 350 349 349 349 351 350 350 348 347 346 343 342 339 337 337 338 340 339 340 342 344 342 341 340 327 322 310 268 229 38 7 298 220 208 205 201 204 207 210 201 182 180 166 122 64 330 281 16 58 239 189 177 144 224 244 216 235 236 215 227 230 257 292 285 273 188 239 240 129 242 263 262 238 244 240 252 254 242 193 154 166 167
348 348 349 350 349 348 347 346 345 346 346 345 345 343 341 339 338 336 333 331 329 331 332 333 334 336 340 339 344 340 333 349 305 212 171 10 2 359 204 199 200 201 207 212 213 206 178 143 146 115 84 231 305 22 185 221 200 180 160 213 236 194 237 247 222 233 246 238 244 271 333 288 259 204 196 234 276 270 236 222 219 226 241 230 193 177 176 174
346 347 349 348 347 345 344 343 343 344 342 342 340 337 336 334 332 329 327 324 321 322 323 326 326 331 335 336 345 345 358 21 247 196 213 315 344 344 210 195 202 205 207 212 198 177 168 125 110 73 86 202 291 70 232 220 151 171 212 225 227 171 234 251 218 225 232 194 228 279 302 279 264 212 219 208 244 261 227 204 217 222 234 219 187 185 180 182
348 349 350 347 346 344 342 343 341 341 338 338 336 334 333 330 328 324 321 318 314 312 312 315 318 323 327 328 339 350 30 321 257 242 286 304 321 297 202 192 201 205 207 205 181 164 169 113 104 126 127 206 201 192 242 224 149 225 250 245 236 204 232 262 233 218 199 207 260 262 279 288 294 275 230 191 234 251 234 201 212 223 234 213 167 171 181 192
353 354 354 350 348 346 345 343 340 339 337 335 333 332 331 328 327 321 318 314 310 306 304 305 308 311 317 322 324 358 93 246 274 283 289 295 297 265 208 201 199 206 207 197 178 166 152 125 162 174 137 272 224 210 235 208 164 230 257 258 248 222 230 257 263 257 247 252 254 262 319 293 262 273 308 227 248 253 252 237 228 235 228 179 158 176 191 196
1 2 359 356 354 351 349 345 341 339 335 334 332 331 329 328 326 321 318 312 308 306 301 298 299 303 306 309 322 345 29 255 275 284 285 287 282 254 217 204 199 206 206 203 194 175 155 154 190 170 147 250 203 192 214 155 205 222 237 250 257 242 241 259 270 267 261 254 251 277 290 265 248 270 322 267 264 266 252 243 241 236 193 169 187 194 198 202
7 6 4 1 359 356 351 346 343 338 335 332 329 329 328 326 323 319 315 309 306 303 301 297 293 294 291 298 84 325 271 247 268 284 281 279 274 250 223 207 201 205 204 213 205 182 173 184 208 194 200 230 174 194 204 183 247 218 225 252 263 269 268 272 273 254 243 243 206 219 268 267 256 255 277 264 266 278 249 239 246 221 196 201 207 202 201 207
6 8 7 5 4 358 353 348 343 339 335 331 329 328 325 323 320 315 310 305 302 299 300 296 288 284 272 227 97 275 265 250 263 275 274 272 267 242 223 216 207 204 201 210 205 190 188 199 202 178 186 200 174 210 170 175 219 201 220 265 257 270 281 256 256 252 228 243 201 201 259 271 275 148 266 266 255 302 249 247 255 214 217 220 214 213 206 211
7 9 8 8 7 0 355 351 345 341 336 332 330 327 323 320 315 310 305 299 297 297 297 292 286 274 251 177 178 247 264 263 266 269 269 271 263 246 235 228 216 208 202 197 205 205 208 203 167 129 188 203 188 232 217 202 208 216 258 299 279 290 297 260 253 257 209 250 208 189 251 277 302 180 248 262 245 97 290 277 262 222 232 229 219 223 210 218
5 6 7 9 6 0 357 351 346 342 337 334 329 326 323 318 313 305 299 293 292 293 292 291 282 259 240 177 221 245 261 265 265 267 268 267 258 249 241 230 224 218 210 203 218 217 215 204 154 152 228 190 214 280 240 226 40 297 19 325 294 327 311 276 268 241 186 225 189 157 256 279 258 231 240 256 257 273 288 280 264 235 237 237 226 226 220 227
0 1 2 2 1 359 355 351 347 343 339 334 330 327 322 315 310 301 294 289 286 289 289 288 275 241 209 251 246 248 257 259 260 262 262 258 250 244 233 223 226 226 221 221 235 221 212 211 180 187 218 162 252 255 179 25 15 299 15 353 297 337 307 278 310 128 176 201 168 143 266 260 250 254 249 257 264 262 271 270 266 252 240 239 232 229 231 233
355 355 355 354 355 354 352 350 347 343 340 334 331 328 321 313 305 295 290 284 282 286 286 283 248 201 179 254 264 256 253 254 254 252 251 247 238 235 229 220 220 221 224 227 224 180 181 197 172 152 227 171 246 295 340 2 8 304 303 280 303 312 279 286 65 106 233 223 158 155 254 252 258 266 260 260 253 217 242 260 264 263 253 241 232 229 238 237
351 350 350 349 349 349 349 348 345 342 339 333 332 332 324 313 300 291 284 278 280 281 276 242 186 164 120 270 269 268 254 249 251 249 248 242 228 224 227 215 214 216 218 220 208 188 158 155 144 145 257 252 334 319 326 340 356 358 278 275 296 216 267 301 306 197 231 263 133 159 242 257 257 266 269 273 217 198 233 255 261 265 263 255 244 230 239 246
344 343 344 344 345 346 346 346 344 341 337 334 334 333 325 313 299 288 278 274 275 255 207 178 178 161 85 272 279 279 250 239 249 252 247 239 230 223 210 196 195 190 189 196 175 172 159 135 123 156 189 288 228 135 35 353 320 337 222 249 265 248 272 312 300 236 218 236 173 200 233 265 257 260 273 287 198 204 238 259 260 262 263 261 260 247 244 253
338 338 339 341 342 343 346 346 344 341 338 337 336 333 327 318 307 295 279 268 223 165 138 161 175 160 271 265 288 277 243 236 246 251 240 232 227 215 186 153 145 135 119 111 140 147 136 118 113 34 46 277 157 105 53 293 273 283 222 236 249 250 255 296 296 285 212 193 212 229 238 253 259 264 282 294 265 222 236 258 261 260 264 262 265 265 257 253
330 331 335 338 342 345 348 347 345 343 340 339 340 334 330 347 356 17 113 118 112 114 92 54 143 146 270 249 254 260 247 237 237 237 229 219 209 203 181 134 119 118 99 64 124 141 19 27 86 55 319 256 167 129 189 232 238 235 221 237 254 244 243 253 267 284 322 231 217 243 256 255 265 271 277 281 276 262 249 256 263 263 264 264 264 265 261 257
322 326 331 337 343 346 348 348 346 345 341 343 346 336 334 36 53 90 100 106 107 114 158 225 170 167 255 245 248 264 280 231 210 216 206 189 183 180 155 122 109 107 112 88 245 187 131 58 77 127 220 235 214 178 203 225 231 230 218 230 253 259 249 238 249 257 284 284 259 254 262 261 267 269 268 272 273 272 266 261 264 264 264 262 260 259 258 258
317 320 326 335 342 343 346 348 346 345 345 347 351 350 26 24 21 43 22 7 215 207 196 214 218 245 274 276 271 261 269 230 217 206 177 170 163 153 125 81 75 76 141 161 202 216 141 163 174 186 216 227 216 196 211 229 243 258 244 246 251 262 265 253 259 263 239 283 265 244 264 269 267 267 267 268 270 274 274 269 264 261 260 260 258 258 257 255
312 316 321 331 336 338 343 345 344 346 348 353 3 21 107 46 4 317 321 289 259 247 246 240 227 246 260 263 260 224 331 256 241 184 169 173 152 147 178 106 115 177 194 148 160 16 144 198 208 210 221 228 218 206 219 238 265 270 251 265 265 251 264 263 265 272 234 224 260 244 267 272 265 266 268 268 265 263 268 270 268 265 260 260 260 259 259 257
307 310 317 325 331 334 339 342 343 345 347 2 29 63 138 249 272 272 297 293 281 253 242 251 235 245 255 255 254 243 13 275 265 204 171 168 147 170 211 138 159 199 150 117 117 254 217 224 225 223 229 250 252 191 188 221 238 244 244 271 270 252 273 272 258 273 270 200 270 265 265 270 266 263 261 261 259 250 255 262 265 267 264 261 259 259 261 262
302 306 314 319 326 328 332 339 339 344 351 10 43 69 55 324 263 240 156 266 289 266 231 242 227 228 247 256 249 212 222 241 253 245 177 160 149 190 163 144 173 156 140 179 204 214 225 234 231 231 236 256 259 218 145 224 236 218 220 246 263 257 268 265 253 298 313 220 272 283 274 273 265 259 251 250 254 250 250 257 263 264 258 256 255 257 260 261
297 303 313 317 320 322 330 335 334 345 352 9 39 22 5 354 253 191 191 249 280 277 244 226 211 217 232 256 228 188 219 225 227 250 173 157 138 148 164 156 146 142 188 205 212 224 239 241 224 222 218 216 241 245 208 254 259 219 210 224 250 251 246 252 275 338 322 265 277 296 291 281 239 236 245 240 249 253 249 255 263 263 254 252 256 257 255 254
288 292 305 317 320 324 331 332 336 348 344 347 16 358 1 357 338 161 120 325 283 285 280 227 195 234 231 225 147 174 207 227 228 218 168 168 160 139 197 167 148 206 210 209 222 241 251 241 165 180 208 208 222 240 218 222 253 249 216 215 237 249 254 263 290 338 334 296 307 348 311 292 199 194 235 239 244 251 247 248 254 259 258 253 256 259 256 252
275 277 287 301 309 320 333 337 332 337 337 333 350 349 351 342 319 201 111 12 285 274 303 226 174 223 222 148 151 157 134 269 265 169 163 183 179 146 168 182 199 228 201 193 225 248 254 229 178 186 201 198 205 244 225 202 239 268 229 211 230 247 258 262 274 305 280 258 296 58 322 289 280 199 220 228 233 245 248 246 248 253 257 253 252 261 264 261
268 268 275 286 293 304 320 312 307 323 334 320 336 343 347 347 321 248 10 356 289 233 139 248 6 100 180 185 180 142 170 275 339 61 112 181 209 147 171 203 212 246 168 139 276 239 212 207 203 205 197 179 191 241 228 186 211 265 234 197 207 220 235 236 232 230 234 272 304 118 140 277 286 256 196 208 218 242 253 249 251 253 255 256 256 262 267 264
269 267 267 275 284 285 281 278 294 309 286 298 332 338 345 350 324 13 40 313 282 124 113 264 163 98 348 314 123 115 195 293 40 336 340 48 219 66 247 228 191 217 171 147 245 244 165 194 206 190 180 187 206 228 197 154 196 256 186 163 173 190 211 180 181 211 250 346 300 212 136 250 279 277 118 186 207 231 248 243 247 252 255 260 264 265 264 263
272 268 261 266 275 269 266 269 271 277 277 303 335 335 348 346 332 62 77 257 278 60 68 323 139 318 355 60 76 49 356 352 74 288 331 65 79 75 202 231 168 228 249 185 236 263 187 208 193 163 169 212 220 225 162 158 200 228 107 91 71 76 82 104 151 159 89 304 248 195 163 215 276 285 79 87 184 221 241 241 248 255 261 265 266 266 267 269
274 268 259 253 248 244 247 260 263 268 274 292 329 337 354 347 20 60 239 244 336 317 244 34 235 315 56 91 326 332 324 291 334 335 358 73 4 31 171 217 119 210 270 256 253 257 246 199 158 167 190 200 175 100 166 174 183 139 99 58 34 26 29 54 52 86 65 278 232 184 184 191 270 288 120 160 215 218 232 244 259 261 261 264 262 264 269 271
284 280 260 243 236 229 218 256 267 257 247 264 325 339 328 10 72 190 243 244 17 288 34 26 324 41 74 116 285 309 228 275 280 121 146 155 27 29 58 272 72 65 311 287 272 270 258 216 205 217 185 133 110 87 358 42 111 122 104 68 24 333 6 24 352 51 191 267 231 185 185 188 233 260 172 255 270 243 226 227 244 254 258 264 266 265 267 267
288 289 260 243 241 229 217 231 250 227 230 230 305 352 59 17 237 213 250 354 349 270 94 314 289 75 80 85 262 250 180 268 246 150 173 167 162 178 190 205 173 25 298 248 270 308 267 225 214 209 182 152 142 144 345 2 94 116 114 129 135 312 342 346 313 97 217 260 253 185 178 208 243 256 269 274 275 255 232 221 231 246 257 263 266 267 273 279
280 282 264 246 239 231 230 235 235 245 230 170 165 35 80 223 248 201 192 283 250 250 93 114 345 97 118 68 268 238 174 234 207 170 181 148 175 234 241 219 173 199 260 221 298 316 284 271 188 149 250 188 155 174 232 258 173 157 156 160 165 203 249 256 257 263 259 266 279 168 168 248 274 271 234 241 256 259 246 232 236 241 249 259 269 282 292 293
278 276 269 255 239 236 240 240 239 239 217 158 124 53 117 229 248 133 162 225 245 324 11 113 37 23 147 223 244 206 214 249 183 151 180 128 153 257 257 239 190 182 243 231 289 222 252 285 199 164 221 184 176 201 202 162 160 185 167 145 176 190 195 220 223 250 265 274 303 198 180 224 265 261 223 232 265 285 264 244 251 257 260 272 290 295 293 288
282 275 273 264 244 236 233 232 234 227 200 153 121 158 210 236 249 234 225 230 273 309 310 339 22 346 284 263 259 225 225 253 124 115 181 169 187 218 213 218 198 179 169 214 252 177 219 268 238 188 168 159 181 219 188 120 117 221 133 119 218 202 172 218 236 235 255 291 289 238 219 232 241 264 258 253 267 271 268 281 298 286 273 278 284 277 277 277
287 280 274 260 247 240 227 222 224 213 187 147 157 209 226 234 217 208 221 195 188 207 320 325 299 246 271 265 271 271 218 226 195 124 213 202 213 223 213 217 195 184 184 197 227 205 235 274 271 305 14 138 176 270 167 137 215 198 134 189 233 149 147 217 253 253 42 270 261 243 256 272 300 291 283 291 282 276 286 291 280 276 281 283 276 272 282 293
303 290 268 247 246 243 229 220 214 201 178 151 206 220 230 228 203 201 201 155 170 145 100 291 241 217 255 251 257 268 191 223 211 175 209 218 237 216 205 238 202 188 201 211 230 240 249 278 273 171 250 278 256 293 340 3 134 133 178 222 205 64 139 180 238 294 233 246 251 255 264 274 292 282 307 10 338 308 283 271 274 292 296 288 286 293 299 298
320 302 270 256 250 241 229 217 202 186 155 168 225 231 229 224 210 201 196 196 253 233 213 244 241 223 231 241 256 240 211 231 183 172 210 223 236 192 171 233 211 195 213 214 227 299 291 279 281 152 222 293 353 354 301 336 92 139 205 244 105 189 241 161 177 221 233 243 245 243 259 269 252 250 284 310 296 285 274 280 323 315 296 287 292 295 291 287
324 306 275 273 255 233 219 202 185 170 147 198 225 235 225 228 229 204 206 223 245 245 235 239 240 242 241 246 260 249 224 225 183 190 222 219 234 203 162 221 221 206 218 190 189 263 60 254 264 135 165 311 13 87 203 278 321 70 291 320 36 188 203 185 190 191 228 248 252 240 247 259 249 234 236 251 248 250 273 296 319 293 287 288 283 282 293 298
321 290 261 303 285 213 199 183 167 170 207 210 225 233 233 249 251 232 223 222 217 222 237 235 224 236 250 257 264 260 237 231 218 221 222 215 242 243 190 181 144 180 224 171 196 237 109 242 252 254 296 292 285 200 192 200 212 186 242 271 271 248 240 264 245 172 220 250 255 248 244 246 256 231 200 230 237 212 222 259 266 266 274 278 275 284 305 313
291 254 251 314 298 181 173 166 173 202 208 222 236 237 246 259 260 270 257 225 220 237 253 227 216 237 255 259 262 256 239 230 226 226 225 222 236 248 229 167 157 155 82 74 200 220 169 240 247 292 277 262 245 210 183 179 176 176 206 237 245 241 259 276 257 218 211 245 250 256 258 250 270 272 228 206 217 206 203 239 275 291 295 299 300 293 299 309
254 214 261 337 194 170 162 170 207 199 215 223 232 237 241 252 251 259 261 227 217 240 294 246 223 238 251 253 258 256 248 237 221 223 237 232 223 227 227 165 151 137 96 146 221 214 143 145 198 230 246 256 267 254 205 202 227 239 229 238 248 237 227 246 253 244 244 258 260 266 265 243 234 270 269 264 255 240 237 256 275 288 291 312 322 313 311 305
236 238 298 320 185 171 168 233 204 205 235 233 268 248 225 233 244 249 249 226 211 219 245 239 229 237 238 239 248 248 244 232 212 221 252 258 235 227 218 183 140 70 39 264 247 220 107 115 218 240 246 265 280 277 249 210 219 247 238 223 230 235 233 237 246 255 258 259 260 265 261 232 198 262 275 283 279 267 255 249 260 290 298 315 318 315 317 313
276 267 287 289 224 190 191 218 209 221 226 236 263 243 236 232 227 244 248 221 198 213 231 235 238 244 237 234 240 229 224 234 230 234 243 249 253 250 244 250 268 293 207 223 232 224 219 203 209 254 273 271 276 279 273 214 173 222 234 216 219 229 237 247 254 259 256 248 244 254 260 243 227 254 269 280 281 278 273 258 235 273 293 302 301 297 298 301
303 266 240 270 261 247 245 229 230 231 221 235 244 240 251 249 221 234 239 234 219 210 235 259 259 273 263 262 265 243 222 227 244 253 236 240 275 290 328 323 300 274 252 251 249 250 248 218 198 241 261 261 261 258 261 260 187 206 230 219 221 224 229 242 253 247 249 244 237 247 260 256 247 251 260 269 275 279 281 280 267 242 262 274 279 282 293 312
294 279 261 277 263 241 260 285 282 235 222 236 237 234 240 244 250 223 207 233 241 219 231 264 263 283 249 233 259 256 241 231 235 248 248 260 291 318 350 347 331 314 313 311 319 1 265 238 225 236 243 248 256 256 258 263 254 253 254 235 229 231 230 237 246 245 253 258 247 246 257 261 256 252 257 264 271 280 288 294 299 293 281 284 296 330 351 4
241 262 252 279 267 223 245 271 266 251 261 244 240 245 235 240 258 239 196 226 244 220 237 247 237 241 238 233 249 254 258 248 240 247 258 270 310 316 330 348 358 6 8 357 346 335 247 254 243 245 248 248 256 263 265 265 260 259 263 260 254 252 243 239 245 249 256 265 260 252 256 262 258 252 257 264 270 278 287 294 301 314 327 343 17 30 26 20
241 269 276 271 275 236 233 261 287 287 298 285 282 305 273 255 258 254 231 267 311 136 231 240 239 331 9 343 277 259 303 270 250 263 311 0 349 326 333 342 357 24 31 12 349 356 254 263 255 255 262 259 258 263 263 262 260 254 254 257 257 256 254 251 251 249 246 253 261 263 261 261 260 255 257 265 277 287 296 306 324 347 5 22 36 35 26 15
277 276 294 309 303 273 289 320 333 316 286 281 275 259 259 259 258 259 289 312 301 280 238 245 42 45 32 13 324 317 323 280 259 323 49 21 346 325 330 313 287 52 38 357 334 315 239 274 281 272 276 273 265 265 263 262 261 255 249 248 251 254 255 255 256 256 254 256 260 264 263 261 264 274 282 304 327 334 341 350 8 22 22 23 26 22 18 10
255 210 298 339 316 275 297 293 285 291 271 260 248 240 244 248 252 266 19 246 254 276 250 124 62 34 332 10 47 284 280 270 267 273 47 11 340 348 336 301 299 349 354 337 314 281 267 311 328 311 294 283 276 272 268 266 266 264 260 254 252 254 254 255 259 262 263 262 261 261 261 262 285 333 348 5 11 14 14 11 20 26 16 14 16 11 7 2
252 291 300 326 292 259 238 267 246 241 256 243 229 243 253 244 250 316 328 239 224 216 107 100 47 351 288 252 281 252 219 163 223 250 246 249 266 264 242 251 284 312 314 288 237 268 278 293 315 309 290 282 283 280 281 288 287 278 272 264 257 255 254 255 256 256 260 265 267 268 270 279 338 355 356 8 12 12 10 7 12 16 12 14 11 1 358 356
246 288 256 169 270 260 233 291 277 236 247 241 232 261 268 76 39 14 307 258 134 117 97 79 18 349 326 295 298 213 173 188 226 237 238 230 234 239 238 239 241 249 271 273 254 237 240 263 293 287 283 287 284 283 293 302 293 279 273 267 259 257 260 261 260 265 276 286 281 280 294 322 340 352 358 3 4 359 351 347 356 5 5 11 8 358 351 347
Height
836 836 835 835 834 833 833 832 831 830 830 829 828 828 826 826 825 824 823 822 821 820 820 819 818 817 816 815 815 814 813 812 811 812 811 808 806 807 807 808 808 808 809 810 810 811 812 813 813 814 815 816 819 819 819 820 820 823 831 837 837 837 834 822 818 816 812 808 804 802 802 804 801 798 796 796 795 794 795 793 791 789 787 788 787 786 786 786
836 836 835 834 834 833 832 832 831 830 830 829 828 827 826 826 825 824 823 822 821 820 820 818 818 817 815 815 814 813 812 811 810 810 807 805 805 805 806 807 807 808 809 809 809 810 811 813 813 814 816 818 820 820 820 821 821 825 834 838 832 829 822 814 812 810 809 807 804 803 803 804 801 798 797 796 794 794 794 792 791 789 786 786 786 787 786 786
836 835 835 834 833 833 832 831 830 830 829 828 828 827 826 825 825 824 823 822 821 820 820 818 818 816 816 815 814 814 812 811 810 808 805 804 804 804 804 806 806 807 808 809 809 810 810 811 811 814 818 820 821 821 821 821 822 824 831 834 825 818 815 811 810 807 806 805 805 803 804 805 800 798 798 796 794 792 792 790 790 789 783 781 785 787 786 787
836 835 834 834 833 832 831 831 830 829 829 828 827 827 826 825 824 824 822 822 821 820 819 818 818 816 816 814 814 814 811 812 810 805 804 804 804 803 803 804 806 807 808 808 809 810 810 810 811 814 818 821 822 822 822 819 821 824 826 824 816 816 815 807 805 805 805 806 806 803 805 804 797 798 796 794 795 789 786 785 784 783 778 777 783 786 786 786
835 835 834 834 833 832 831 830 829 829 828 827 827 826 825 825 824 823 822 821 820 820 819 818 817 816 816 814 815 812 813 818 810 802 804 804 803 803 803 804 805 806 807 808 808 810 810 810 812 815 818 820 822 822 820 817 818 822 819 814 811 816 813 801 802 804 803 805 805 803 804 799 795 796 792 793 794 782 776 779 776 774 772 773 778 782 784 785
835 834 834 833 832 832 831 830 829 828 828 827 826 825 825 824 823 822 821 820 820 819 818 818 816 816 815 814 815 812 817 821 808 802 804 803 803 803 803 803 804 805 806 807 808 809 810 811 813 817 819 819 820 819 816 816 817 818 814 810 809 812 808 800 800 802 802 805 803 802 800 797 796 792 788 790 785 772 769 772 771 770 769 770 774 779 781 781
835 834 834 833 832 831 830 830 829 828 827 826 825 824 824 823 822 821 820 820 819 818 818 817 816 816 815 814 814 813 817 815 803 802 804 802 803 802 802 803 804 805 805 806 807 808 810 812 814 816 818 818 818 816 814 815 816 817 814 809 806 807 806 800 800 801 802 803 801 801 800 796 795 791 788 785 773 766 769 769 768 768 768 770 772 775 775 775
835 834 833 832 832 831 830 829 828 828 826 826 825 824 823 822 821 820 819 819 817 817 817 816 816 815 814 814 814 815 817 809 801 802 802 801 802 801 802 802 803 804 804 804 805 807 809 811 813 814 816 815 815 814 814 814 816 817 812 807 805 805 802 799 800 801 801 801 800 801 798 792 790 791 788 777 764 764 768 766 766 767 768 770 769 771 772 772
834 833 833 832 831 830 829 829 828 827 825 825 824 823 822 821 820 819 818 817 816 816 815 815 815 813 814 813 814 817 811 802 800 801 800 801 800 800 801 800 802 802 803 804 804 806 807 809 809 810 812 812 813 812 812 815 814 811 807 806 805 803 800 799 799 798 799 798 798 799 794 787 786 790 783 766 759 762 763 763 763 765 767 767 766 768 769 769
834 833 832 832 831 830 829 828 827 826 825 824 823 822 821 820 819 818 817 816 815 814 814 814 814 813 814 812 816 817 803 798 800 799 799 799 798 799 799 799 800 800 802 803 803 804 804 805 805 806 809 810 812 812 812 813 810 807 807 806 803 803 800 798 796 795 798 796 794 796 791 784 786 791 779 758 757 761 760 762 763 764 764 763 764 765 766 766
833 832 832 831 830 829 828 827 826 825 823 822 821 820 819 818 817 816 815 814 813 813 813 812 812 813 812 812 816 811 798 797 798 797 798 797 797 797 797 798 798 799 800 801 802 802 802 803 803 805 808 809 810 812 811 808 806 806 807 805 801 802 799 794 794 794 796 792 787 791 790 786 789 791 776 755 755 760 759 761 762 763 761 760 762 762 764 763
833 832 832 830 830 829 828 827 825 824 822 821 820 818 817 816 815 814 813 812 812 812 811 811 812 811 812 812 809 801 795 796 796 795 796 795 795 796 796 797 797 798 799 799 800 800 801 802 802 805 807 808 810 811 808 805 807 805 806 808 801 801 798 786 787 790 791 788 783 789 793 788 785 778 764 754 754 760 761 759 758 760 759 758 759 760 760 758
833 832 831 830 829 828 827 826 824 823 821 820 818 817 816 814 813 812 811 810 810 810 809 810 810 810 813 810 799 794 794 794 794 794 794 793 794 794 795 796 796 798 798 799 800 799 801 802 802 805 805 807 810 809 806 806 808 805 808 811 805 808 799 781 783 787 787 786 781 787 794 786 774 764 756 754 756 760 762 757 754 755 756 756 756 757 756 753
833 832 831 830 829 828 827 825 824 822 820 818 817 815 813 812 811 809 808 808 807 808 808 809 809 810 812 805 792 792 793 792 792 791 791 792 792 793 793 794 795 797 798 799 800 800 801 801 802 805 805 807 807 805 808 810 810 808 811 812 813 817 801 779 784 790 786 785 780 784 793 784 768 757 751 752 756 759 759 754 751 751 751 752 753 753 751 748
832 831 831 829 828 827 826 825 823 821 819 817 815 813 811 809 808 807 806 806 805 807 806 808 808 809 812 802 791 791 791 790 789 787 789 790 790 791 792 793 795 795 797 798 799 800 800 801 803 805 806 806 806 809 814 814 811 812 815 814 817 818 805 787 784 786 784 782 783 786 788 782 769 757 748 751 756 757 756 752 749 749 748 748 748 749 747 743
832 831 830 829 828 827 826 824 822 820 818 816 814 812 809 806 805 804 803 803 804 805 806 808 807 808 811 801 791 791 789 787 786 785 787 787 788 790 791 792 794 795 797 797 799 800 800 801 804 807 807 806 809 813 818 821 817 817 819 816 815 815 812 801 784 778 780 780 783 784 780 774 765 754 748 751 755 756 755 751 748 747 745 745 745 745 744 741
832 831 830 829 828 826 825 824 822 820 817 815 812 809 807 804 802 801 801 802 803 804 806 807 806 809 806 796 792 789 785 784 784 784 785 785 787 789 790 792 794 795 796 797 798 800 800 803 806 808 808 809 812 815 823 830 822 817 820 819 817 813 812 807 787 775 779 782 781 781 779 770 759 754 752 751 753 755 754 749 746 745 744 744 743 742 741 738
831 831 830 829 827 826 825 823 821 818 816 814 810 807 805 804 802 802 801 802 803 805 808 807 808 812 804 792 790 785 781 782 782 783 783 784 787 789 790 791 793 795 797 799 799 800 803 806 809 810 810 811 812 816 823 823 813 809 812 813 814 812 810 810 795 777 776 781 781 783 781 771 763 759 757 753 751 753 752 748 744 743 743 742 741 740 735 733
831 830 829 829 827 826 825 823 821 818 816 812 810 807 804 804 803 803 803 803 804 804 805 805 804 806 798 787 785 782 780 782 781 782 782 784 786 788 790 791 793 795 799 802 802 801 803 808 813 814 811 806 805 811 812 803 798 800 804 806 807 807 804 802 792 779 778 782 783 785 777 767 764 761 756 752 749 748 746 745 742 740 739 738 738 735 730 727
829 829 829 828 827 826 824 823 821 818 816 812 809 806 805 808 806 804 805 804 802 799 799 800 797 794 789 784 783 782 782 782 781 781 782 783 785 788 791 792 795 798 800 802 802 802 803 807 812 809 801 794 794 800 798 792 795 801 806 807 806 807 801 792 786 778 780 784 778 776 770 762 761 757 752 749 747 746 741 738 735 734 734 732 732 727 722 720
828 828 828 828 827 826 824 823 821 819 817 814 810 808 812 816 813 811 810 803 797 796 796 795 794 791 785 783 782 781 782 782 780 781 782 783 784 788 791 793 798 801 801 802 803 805 806 808 808 798 786 784 789 794 795 797 801 803 806 807 808 808 797 786 782 776 779 785 775 770 768 759 757 754 749 747 747 744 738 732 728 726 727 727 725 721 714 711
828 827 827 827 826 825 824 823 821 819 818 816 813 814 818 819 818 818 817 809 797 793 794 791 790 790 782 780 780 782 785 784 780 780 782 783 785 788 790 794 799 800 803 805 804 807 810 809 802 790 784 787 791 794 798 801 803 804 808 810 808 804 794 783 780 776 781 785 775 772 768 755 752 750 746 744 740 737 732 726 722 721 723 722 718 713 708 705
827 826 826 826 826 825 824 823 821 820 819 817 816 818 819 818 818 818 818 815 802 791 788 786 785 785 780 777 777 781 786 784 781 780 780 782 786 788 789 794 799 801 803 802 799 804 807 801 792 789 791 794 793 795 799 800 802 804 806 808 803 798 794 785 778 777 782 783 775 774 767 752 748 746 742 739 729 727 727 722 719 718 717 716 710 705 703 700
827 826 826 825 826 825 823 823 821 820 820 819 819 820 819 818 818 818 817 814 804 791 782 780 781 780 776 774 774 778 782 781 780 778 777 780 786 789 789 792 799 802 801 797 794 794 791 786 786 790 793 795 796 796 799 800 799 798 799 802 795 789 790 786 781 782 784 781 777 777 762 737 733 739 734 731 726 724 725 721 718 715 709 708 704 698 697 695
826 826 825 825 825 824 823 822 821 822 821 820 821 820 819 819 817 818 817 812 803 790 779 777 779 776 771 773 774 776 779 779 777 775 776 778 781 786 788 790 793 796 795 795 797 794 787 784 786 790 793 796 797 797 799 799 794 790 792 792 784 780 784 785 787 791 791 785 781 783 767 728 716 730 730 724 725 722 721 722 717 709 703 702 700 693 691 691
826 825 825 825 824 823 823 822 821 822 820 821 822 820 820 819 818 818 817 813 800 784 777 777 776 773 770 773 774 774 779 778 774 773 775 775 776 779 786 788 787 788 790 794 797 794 786 783 783 786 790 793 799 800 795 794 793 788 784 779 779 784 787 787 790 794 792 787 785 787 782 751 720 719 725 721 721 719 717 718 712 704 699 698 696 690 687 687
824 824 824 824 823 823 823 822 822 821 821 822 820 821 821 818 820 819 814 814 797 774 773 777 775 771 770 773 773 773 779 777 774 776 775 776 776 776 782 786 786 786 786 792 794 787 781 783 784 785 788 793 800 796 784 788 794 786 778 774 776 782 785 787 791 795 792 788 790 786 786 781 740 711 715 714 716 720 716 713 705 698 696 693 692 689 686 684
823 823 823 823 822 822 822 822 822 821 822 821 819 821 819 817 821 816 818 822 794 765 769 773 770 769 768 772 772 773 779 776 775 778 777 777 778 778 782 784 785 785 784 788 789 780 776 780 782 784 790 794 790 780 775 785 788 781 781 781 780 782 783 787 788 793 798 793 794 788 785 789 749 706 713 720 720 723 714 707 700 694 693 689 688 687 682 679
821 821 821 822 821 821 821 821 821 821 821 820 820 820 817 819 818 814 828 827 786 761 770 770 767 771 770 773 775 775 778 777 777 779 777 778 777 779 783 783 784 784 783 784 782 778 776 778 780 781 786 784 776 774 775 779 779 780 786 786 786 789 788 792 788 788 796 789 787 787 782 782 743 703 715 726 722 718 708 703 700 695 693 688 686 684 678 676
819 819 820 820 820 820 820 819 819 820 821 820 821 819 817 818 817 823 833 817 781 770 774 769 770 775 773 775 777 777 778 778 779 780 778 779 778 778 782 782 783 784 784 785 781 777 777 781 783 778 775 772 771 780 784 780 780 782 784 780 784 789 788 794 792 787 792 781 772 771 770 775 750 713 715 719 712 710 704 701 699 694 691 686 684 682 676 675
817 817 818 818 818 819 819 819 818 818 820 820 820 819 818 818 823 831 821 795 781 778 773 772 777 777 775 778 778 777 779 778 778 779 778 780 781 781 783 783 784 787 787 785 781 779 778 780 778 770 769 771 771 779 787 788 786 782 781 780 782 786 787 792 794 793 793 775 760 759 762 771 751 716 711 711 707 708 704 699 691 687 686 683 683 680 675 673
816 816 816 817 817 817 818 818 817 818 819 819 821 818 819 825 827 822 804 787 783 779 772 778 780 777 778 781 777 777 780 778 777 779 778 782 784 781 783 781 780 785 785 780 778 776 773 771 769 766 768 769 767 773 783 787 786 784 784 785 789 793 793 793 794 796 792 771 760 764 769 764 736 708 708 707 700 698 698 697 690 684 683 679 678 677 673 673
814 814 815 815 815 815 816 816 817 818 818 819 821 818 824 833 820 802 796 790 783 776 773 778 780 780 782 780 777 777 780 777 776 778 778 782 786 781 780 781 778 778 779 780 779 772 765 763 766 768 765 762 762 769 775 774 779 784 781 782 790 795 795 794 792 793 784 764 762 773 772 756 726 704 701 697 691 690 691 694 691 686 684 680 678 678 676 675
812 813 813 813 813 813 814 816 816 817 818 819 821 823 829 826 805 791 793 789 779 774 775 778 781 782 782 780 777 775 777 774 772 777 779 782 788 782 778 780 782 779 778 783 781 776 772 763 758 758 753 754 755 754 754 757 769 776 769 770 777 775 777 781 777 773 764 753 763 777 766 744 721 702 695 692 691 691 690 691 692 690 689 687 685 684 679 673
810 810 810 810 810 810 811 813 814 816 818 819 822 826 823 810 796 793 791 784 780 777 775 777 779 781 781 780 778 774 773 772 774 778 779 780 783 778 772 774 779 780 781 784 779 777 777 761 747 750 749 750 751 745 745 752 763 771 769 768 767 759 758 764 761 753 754 757 761 764 751 729 710 697 692 695 692 688 688 689 691 691 688 688 686 680 676 671
808 808 808 807 806 808 809 810 812 814 816 820 823 820 807 794 790 791 785 780 780 778 778 779 778 780 781 777 777 776 773 775 778 778 778 781 779 775 772 769 771 773 774 776 771 769 772 758 747 752 753 754 757 752 750 752 755 766 772 763 757 753 751 757 757 750 759 767 750 739 735 721 708 696 687 689 689 687 690 688 688 687 685 687 685 680 678 676
807 806 805 802 802 805 806 808 810 812 814 819 818 805 791 785 783 782 779 778 778 776 781 785 779 777 779 776 775 775 774 775 778 776 777 779 773 768 768 764 763 766 761 761 763 760 763 756 747 750 752 756 765 760 755 756 756 760 765 756 752 756 754 758 765 760 763 764 743 728 726 719 718 707 688 686 688 685 684 683 686 688 686 686 686 685 684 682
805 805 802 797 797 800 802 805 807 810 814 816 810 795 785 782 778 776 776 777 777 777 781 787 780 773 776 777 773 770 772 774 775 775 775 774 766 759 759 756 757 761 756 757 763 761 764 761 751 752 756 757 761 759 756 759 760 758 757 754 755 759 756 757 765 762 759 757 743 731 724 717 718 708 692 691 689 681 679 680 683 687 685 684 684 683 682 679
805 806 800 791 791 794 798 802 804 809 812 809 803 792 782 778 776 774 774 774 777 780 782 782 779 775 774 774 772 769 771 772 772 773 773 770 762 753 752 752 753 757 756 758 763 761 766 769 758 753 758 759 757 758 757 756 757 759 759 757 758 758 755 754 755 753 750 748 741 734 726 714 704 696 691 691 686 682 684 683 682 684 686 685 683 680 678 677
805 806 799 789 789 791 795 800 803 806 804 797 792 786 779 778 776 774 774 774 775 777 779 778 778 778 774 771 772 771 770 770 770 771 769 763 758 751 748 749 751 756 757 758 760 760 763 768 763 756 758 760 757 754 753 750 751 757 759 759 759 757 754 755 752 746 744 743 739 734 727 710 693 687 686 686 685 686 688 688 685 684 685 685 683 680 678 677
806 806 798 789 789 791 795 801 801 799 796 790 786 783 779 778 776 775 774 775 774 773 774 776 776 776 775 772 772 771 771 770 768 770 767 760 759 755 748 746 748 753 758 761 761 761 761 764 766 764 759 756 750 746 748 748 749 754 756 756 756 754 755 758 753 741 737 738 733 729 725 708 691 684 681 682 685 686 686 687 685 682 679 678 678 679 678 678
806 803 795 790 791 791 794 797 795 793 792 787 782 780 779 778 776 775 775 775 776 774 774 775 774 774 773 772 770 769 771 770 767 767 765 759 757 754 748 747 748 750 757 763 761 757 758 763 769 768 760 753 748 746 748 749 750 753 755 753 751 751 753 757 752 740 734 732 726 726 725 710 692 683 678 679 682 682 682 682 680 679 678 676 676 676 678 678
805 799 792 791 792 791 792 792 789 790 788 782 779 778 778 778 777 776 775 775 777 777 776 775 773 772 771 769 769 769 770 769 765 763 763 759 754 749 747 748 751 754 760 763 759 757 761 765 767 763 758 754 749 745 746 749 752 753 751 750 749 746 744 743 741 737 735 734 732 732 726 712 697 687 681 678 679 680 680 680 680 681 680 680 679 679 679 678
804 800 795 793 792 791 790 786 783 785 784 782 781 779 777 777 776 775 775 775 775 775 775 773 771 770 768 766 767 769 770 771 766 761 761 761 755 748 746 749 751 755 758 756 752 754 758 759 761 761 760 756 752 745 742 746 752 751 745 743 742 739 738 736 736 738 737 734 734 732 723 709 699 692 686 681 677 676 676 678 681 682 681 682 682 681 680 679
805 801 796 792 791 791 787 781 780 782 781 781 781 779 778 777 773 772 773 774 773 773 773 772 772 773 773 771 772 771 770 771 770 763 760 761 757 751 753 757 756 754 754 753 752 754 755 751 752 758 759 755 751 744 735 735 741 744 740 737 736 735 735 735 736 739 735 726 724 722 713 704 698 695 692 686 679 674 670 672 679 682 682 681 681 681 681 682
807 802 797 793 791 791 788 783 783 783 781 781 779 776 777 774 770 769 771 772 771 770 773 774 774 776 776 775 776 775 770 770 771 768 764 762 760 759 763 764 762 760 758 756 757 761 761 755 750 750 748 744 740 733 727 727 731 734 734 732 732 732 731 732 731 729 724 719 714 708 704 702 699 697 694 687 683 679 672 670 675 681 681 680 682 687 690 694
808 804 798 794 791 790 788 786 786 785 782 781 778 774 773 773 771 770 770 770 770 770 772 772 773 774 773 774 775 773 769 768 769 769 768 769 770 771 769 765 765 767 763 762 763 763 763 758 750 745 742 738 734 729 727 729 730 730 730 728 729 729 729 732 730 723 719 718 710 701 701 702 699 698 695 689 685 684 679 675 674 678 683 687 693 699 703 705
807 803 797 795 795 792 789 790 791 789 786 784 782 778 776 775 774 771 771 770 770 772 772 772 776 779 780 781 779 776 772 769 770 772 775 781 784 781 773 767 768 770 769 771 771 769 769 761 750 746 743 737 735 732 729 730 729 729 729 727 725 724 725 726 723 717 717 717 707 699 700 698 695 693 690 688 688 687 686 684 684 690 699 705 708 710 711 711
805 803 798 797 799 796 794 795 795 794 791 789 788 784 780 778 776 773 773 773 772 772 770 774 784 789 790 789 785 785 782 776 776 781 785 790 791 787 782 776 771 771 774 777 775 773 772 762 749 749 748 741 738 735 732 731 729 726 726 724 722 722 720 717 713 710 712 709 701 701 701 694 691 695 697 700 704 704 702 702 706 713 719 719 717 717 716 715
804 804 801 800 801 799 798 798 797 797 794 790 789 785 779 779 777 775 777 777 776 774 772 779 791 793 792 791 789 790 789 784 785 787 789 794 792 788 789 784 777 775 777 780 777 773 771 763 753 755 756 747 739 735 734 734 732 729 726 723 722 720 716 713 711 709 709 704 700 701 698 692 700 716 721 721 721 719 718 719 722 726 726 725 723 721 719 716
803 803 803 805 804 799 798 798 797 797 795 790 788 784 779 780 782 782 782 779 777 778 779 785 793 793 792 793 792 791 789 789 792 790 790 794 792 787 788 785 782 782 779 777 776 774 773 769 761 762 761 748 739 738 737 735 736 735 730 725 722 718 715 713 709 705 703 701 698 696 699 711 729 738 734 730 729 729 728 728 729 729 729 729 728 725 722 719
803 803 802 805 805 799 798 800 798 797 794 789 787 785 783 786 789 789 787 780 778 782 786 789 792 792 793 792 789 789 789 789 791 789 787 788 786 784 784 781 781 783 780 775 773 771 770 769 765 764 761 748 739 738 737 739 741 733 723 718 713 709 709 706 704 705 709 712 716 720 730 745 751 746 740 738 737 736 734 732 731 731 731 731 729 728 726 723